EW4553 Weather Reports


Display with metric or nautical units.
time (UTC)temp
F
wind
direction
speed
MPH
gust
MPH
rain 1hr
in
rain 24hr
in
rain mn
in
humidity
%
barometer
mb
20190716021628 53 319 0.0 0.0 0.00 0.00 0.00 93 1012.9
20190716021405 53 321 0.0 0.0 0.00 0.00 0.00 93 1027.3
20190716020851 53 272 0.0 0.0 0.00 0.00 0.00 93 1027.3
20190716020341 53 268 0.0 0.0 0.00 0.00 0.00 93 1027.3
20190716020026 53 268 0.0 0.0 0.00 0.00 0.00 93 1012.9
20190716015833 53 268 0.0 0.0 0.00 0.00 0.00 93 1027.3
20190716015324 53 267 0.0 0.0 0.00 0.00 0.00 93 1027.4
20190716014815 53 267 0.0 0.0 0.00 0.00 0.00 93 1027.5
20190716014606 52 267 0.0 0.0 0.00 0.00 0.00 93 1013.0
20190716014307 53 267 0.0 0.0 0.00 0.00 0.00 92 1027.5
20190716013752 53 267 0.0 0.0 0.00 0.00 0.00 92 1027.6
20190716013242 53 267 0.0 0.0 0.00 0.00 0.00 92 1027.7
20190716013023 52 267 0.0 0.0 0.00 0.00 0.00 92 1013.2
20190716012734 53 267 0.0 0.0 0.00 0.00 0.00 92 1027.7
20190716012232 53 267 0.0 0.0 0.00 0.00 0.00 92 1027.7
20190716011714 53 267 0.0 0.0 0.00 0.00 0.00 92 1027.8
20190716011637 53 259 0.0 0.0 0.00 0.00 0.00 91 1013.3
20190716011204 53 255 0.0 0.0 0.00 0.00 0.00 91 1027.8
20190716010650 53 212 0.0 0.0 0.00 0.00 0.00 91 1027.8
20190716010139 53 212 0.0 0.0 0.00 0.00 0.00 91 1027.8
20190716010021 53 212 0.0 0.0 0.00 0.00 0.00 91 1013.3
20190716005625 53 212 0.0 0.0 0.00 0.00 0.00 91 1027.8
20190716005116 54 212 0.0 0.0 0.00 0.00 0.00 91 1027.8
20190716004606 53 212 0.0 0.0 0.00 0.00 0.00 92 1013.3
20190716004055 54 212 0.0 0.0 0.00 0.00 0.00 91 1027.9
20190716003546 54 212 0.0 0.0 0.00 0.00 0.00 91 1027.9
20190716003035 54 212 0.0 0.0 0.00 0.00 0.00 90 1027.9
20190716003015 53 212 0.0 0.0 0.00 0.00 0.00 90 1013.4
20190716002522 54 212 0.0 0.0 0.00 0.00 0.00 90 1027.8
20190716002012 54 212 0.0 0.0 0.00 0.00 0.00 90 1027.9
20190716001553 54 212 0.0 0.0 0.00 0.00 0.00 90 1013.4
20190716001502 54 212 0.0 0.0 0.00 0.00 0.00 90 1027.9
20190716000952 54 212 0.0 0.0 0.00 0.00 0.00 91 1027.9
20190716000438 54 212 0.0 0.0 0.00 0.00 0.00 91 1028.0
20190716000007 54 212 0.0 0.0 0.00 0.00 0.00 91 1013.6
20190715235928 54 212 0.0 0.0 0.00 0.00 0.00 90 1028.1
20190715235418 54 212 0.0 0.0 0.00 0.00 0.00 90 1028.0
20190715234907 55 212 0.0 0.0 0.00 0.00 0.00 90 1028.0
20190715234620 54 212 0.0 0.0 0.00 0.00 0.00 90 1013.6
20190715234358 55 212 0.0 0.0 0.00 0.00 0.00 90 1028.1
20190715233848 55 212 0.0 0.0 0.00 0.00 0.00 90 1028.1
20190715233337 55 212 0.0 0.0 0.00 0.00 0.00 90 1028.1
20190715233010 54 212 0.0 0.0 0.00 0.00 0.00 89 1013.6
20190715232828 55 212 0.0 0.0 0.00 0.00 0.00 89 1028.1
20190715232317 55 212 0.0 0.0 0.00 0.00 0.00 89 1028.1
20190715231807 55 212 0.0 0.0 0.00 0.00 0.00 89 1028.1
20190715231614 55 212 0.0 0.0 0.00 0.00 0.00 88 1013.7
20190715231258 55 212 0.0 0.0 0.00 0.00 0.00 88 1028.2
20190715230748 55 212 0.0 0.0 0.00 0.00 0.00 88 1028.2
20190715230233 56 212 0.0 0.0 0.00 0.00 0.00 87 1028.2
20190715230036 55 212 0.0 0.0 0.00 0.00 0.00 88 1013.8
20190715225726 56 212 0.0 0.0 0.00 0.00 0.00 88 1028.2
20190715225217 56 212 0.0 0.0 0.00 0.00 0.00 88 1028.3
20190715224707 56 212 0.0 0.0 0.00 0.00 0.00 87 1028.3
20190715224606 56 212 0.0 0.0 0.00 0.00 0.00 87 1013.8
20190715224148 56 212 0.0 0.0 0.00 0.00 0.00 87 1028.3
20190715223639 56 212 0.0 0.0 0.00 0.00 0.00 87 1028.3
20190715223129 56 212 0.0 0.0 0.00 0.00 0.00 87 1028.3
20190715223003 56 212 0.0 0.0 0.00 0.00 0.00 87 1013.8
20190715222618 56 212 0.0 0.0 0.00 0.00 0.00 87 1028.2
20190715222109 56 212 0.0 0.0 0.00 0.00 0.00 86 1028.3
20190715221619 56 212 0.0 0.0 0.00 0.00 0.00 86 1013.8
20190715221601 57 212 0.0 0.0 0.00 0.00 0.00 86 1028.3
20190715221053 57 212 0.0 0.0 0.00 0.00 0.00 86 1028.4
20190715220545 57 212 0.0 1.0 0.00 0.00 0.00 86 1028.3
20190715220038 57 212 0.0 1.0 0.00 0.00 0.00 86 1028.3
20190715220015 56 212 0.0 0.0 0.00 0.00 0.00 86 1013.8
20190715215533 57 212 0.0 2.0 0.00 0.00 0.00 86 1028.3
20190715215025 57 212 0.0 2.0 0.00 0.00 0.00 86 1028.3
20190715214644 56 212 0.0 0.0 0.00 0.00 0.00 86 1013.8
20190715214521 57 212 0.0 3.0 0.00 0.00 0.00 86 1028.3
20190715214015 57 212 0.0 3.0 0.00 0.00 0.00 85 1028.3
20190715213516 57 212 1.0 3.0 0.00 0.00 0.00 85 1028.3
20190715213112 57 212 1.0 3.0 0.00 0.00 0.00 85 1013.9
20190715213007 57 212 1.0 3.0 0.00 0.00 0.00 85 1028.4
20190715212503 57 212 1.0 3.0 0.00 0.00 0.00 85 1028.4
20190715211950 57 212 1.0 3.0 0.00 0.00 0.00 85 1028.4
20190715211625 57 212 0.0 3.0 0.00 0.00 0.00 85 1013.9
20190715211447 57 212 1.0 3.0 0.00 0.00 0.00 85 1028.4
20190715210939 57 212 1.0 3.0 0.00 0.00 0.00 85 1028.5
20190715210438 57 212 1.0 3.0 0.00 0.00 0.00 85 1028.5
20190715205921 58 211 1.0 3.0 0.00 0.00 0.00 85 1028.6
20190715205414 58 211 1.0 3.0 0.00 0.00 0.00 84 1028.6
20190715204914 58 211 1.0 3.0 0.00 0.00 0.00 85 1028.6
20190715204620 57 211 0.0 3.0 0.00 0.00 0.00 85 1014.1
20190715204352 58 211 1.0 5.0 0.00 0.00 0.00 85 1028.6
20190715203846 58 211 1.0 5.0 0.00 0.00 0.00 85 1028.6
20190715203339 58 211 1.0 5.0 0.00 0.00 0.00 84 1028.5
20190715203033 58 216 1.0 5.0 0.00 0.00 0.00 84 1014.0
20190715202833 58 216 1.0 5.0 0.00 0.00 0.00 84 1028.4
20190715202325 58 238 1.0 4.0 0.00 0.00 0.00 84 1028.4
20190715201817 58 238 2.0 4.0 0.00 0.00 0.00 84 1028.4
20190715201628 58 238 2.0 4.0 0.00 0.00 0.00 84 1013.8
20190715201311 58 216 2.0 4.0 0.00 0.00 0.00 84 1028.4
20190715200808 58 181 2.0 4.0 0.00 0.00 0.00 84 1028.4
20190715200256 59 212 2.0 4.0 0.00 0.00 0.00 84 1028.4
20190715200044 58 205 0.0 4.0 0.00 0.00 0.00 83 1013.9
20190715195750 59 186 2.0 4.0 0.00 0.00 0.00 83 1028.4
20190715195246 59 202 2.0 5.0 0.00 0.00 0.00 83 1028.4
20190715194741 59 221 2.0 4.0 0.00 0.00 0.00 83 1028.3
20190715194232 59 176 2.0 6.0 0.00 0.00 0.00 83 1028.4
20190715193719 59 231 3.0 6.0 0.00 0.00 0.00 83 1028.4
20190715193211 59 207 3.0 6.0 0.00 0.00 0.00 83 1028.4
20190715193149 59 209 2.0 6.0 0.00 0.00 0.00 83 1013.9
20190715192702 59 144 4.0 7.0 0.00 0.00 0.00 83 1028.4
20190715192150 59 158 3.0 7.0 0.00 0.00 0.00 83 1028.3
20190715191648 60 171 3.0 7.0 0.00 0.00 0.00 82 1028.3
20190715191532 59 202 2.0 7.0 0.00 0.00 0.00 82 1013.8
20190715191145 60 184 3.0 7.0 0.00 0.00 0.00 82 1028.3
20190715190629 60 181 3.0 8.0 0.00 0.00 0.00 81 1028.3
20190715190221 59 219 2.0 8.0 0.00 0.00 0.00 81 1013.8
20190715190108 60 219 3.0 8.0 0.00 0.00 0.00 81 1028.3
20190715185558 60 185 4.0 8.0 0.00 0.00 0.00 81 1028.2
20190715185048 60 146 4.0 8.0 0.00 0.00 0.00 81 1028.2
20190715184615 60 171 3.0 9.0 0.00 0.00 0.00 81 1013.7
20190715184549 60 185 4.0 9.0 0.00 0.00 0.00 81 1028.2
20190715184038 60 183 4.0 9.0 0.00 0.00 0.00 81 1028.2
20190715183528 61 172 4.0 8.0 0.00 0.00 0.00 80 1028.2
20190715183158 60 166 5.0 8.0 0.00 0.00 0.00 79 1013.7
20190715183018 61 187 4.0 10.0 0.00 0.00 0.00 79 1028.2
20190715182507 61 180 5.0 10.0 0.00 0.00 0.00 80 1028.2
20190715181958 61 149 5.0 10.0 0.00 0.00 0.00 79 1028.2
20190715181553 61 179 5.0 10.0 0.00 0.00 0.00 79 1013.7
20190715181443 62 188 4.0 10.0 0.00 0.00 0.00 79 1028.1
20190715180944 62 193 4.0 10.0 0.00 0.00 0.00 79 1028.1
20190715180434 62 155 5.0 10.0 0.00 0.00 0.00 78 1028.2
20190715180003 62 184 5.0 10.0 0.00 0.00 0.00 78 1013.7
20190715175925 62 198 6.0 10.0 0.00 0.00 0.00 78 1028.1
20190715175414 63 155 5.0 10.0 0.00 0.00 0.00 76 1028.1
20190715174904 63 175 5.0 9.0 0.00 0.00 0.00 76 1028.2
20190715174615 63 183 3.0 8.0 0.00 0.00 0.00 76 1013.7
20190715174404 64 183 5.0 10.0 0.00 0.00 0.00 75 1028.2
20190715173854 64 165 5.0 9.0 0.00 0.00 0.00 75 1028.2
20190715173344 65 173 5.0 10.0 0.00 0.00 0.00 74 1028.2
20190715173032 64 163 4.0 9.0 0.00 0.00 0.00 74 1013.7
20190715172833 65 164 6.0 9.0 0.00 0.00 0.00 73 1028.2
20190715172324 65 209 6.0 10.0 0.00 0.00 0.00 73 1028.2
20190715171814 65 157 5.0 10.0 0.00 0.00 0.00 72 1028.2
20190715171635 65 172 5.0 10.0 0.00 0.00 0.00 72 1013.6
20190715171304 66 172 5.0 10.0 0.00 0.00 0.00 73 1028.1
20190715170753 66 181 5.0 10.0 0.00 0.00 0.00 73 1028.1
20190715170243 66 186 5.0 10.0 0.00 0.00 0.00 72 1028.1
20190715170016 66 155 4.0 10.0 0.00 0.00 0.00 72 1013.6
20190715165730 66 162 5.0 10.0 0.00 0.00 0.00 73 1028.1
20190715165220 66 173 5.0 10.0 0.00 0.00 0.00 72 1028.1
20190715164710 66 180 5.0 11.0 0.00 0.00 0.00 73 1028.1
20190715164159 66 168 6.0 11.0 0.00 0.00 0.00 73 1028.1
20190715163645 66 150 5.0 11.0 0.00 0.00 0.00 72 1028.1
20190715163136 67 187 5.0 11.0 0.00 0.00 0.00 72 1028.2
20190715163013 66 157 5.0 11.0 0.00 0.11 0.00 72 1013.7
20190715162625 67 177 5.0 9.0 0.00 0.00 0.00 72 1028.2
20190715162116 66 204 5.0 10.0 0.00 0.00 0.00 73 1028.2
20190715161641 66 176 5.0 9.0 0.00 0.11 0.00 72 1013.8
20190715161605 67 151 6.0 10.0 0.00 0.01 0.00 72 1028.3
20190715161055 67 171 5.0 10.0 0.00 0.02 0.00 72 1028.4
20190715160548 67 158 5.0 11.0 0.00 0.07 0.00 72 1028.4
20190715160042 67 185 6.0 11.0 0.00 0.11 0.00 71 1013.9
20190715160038 67 164 5.0 11.0 0.00 0.11 0.00 71 1028.4
20190715155527 67 129 6.0 10.0 0.00 0.14 0.00 72 1028.5
20190715155017 67 179 6.0 10.0 0.00 0.14 0.00 72 1028.6
20190715154709 67 190 5.0 10.0 0.00 0.14 0.00 73 1014.1
20190715154507 67 164 6.0 10.0 0.00 0.14 0.00 73 1028.6
20190715153958 67 192 6.0 10.0 0.00 0.14 0.00 72 1028.6
20190715153448 67 175 7.0 12.0 0.00 0.14 0.00 71 1028.7
20190715153027 67 153 5.0 12.0 0.00 0.14 0.00 72 1014.2
20190715152938 67 174 6.0 12.0 0.00 0.14 0.00 72 1028.7
20190715152428 68 155 6.0 12.0 0.00 0.14 0.00 72 1028.7
20190715151917 68 159 6.0 11.0 0.00 0.14 0.00 71 1028.7
20190715151626 67 133 4.0 11.0 0.00 0.14 0.00 73 1014.2
20190715151408 68 155 6.0 11.0 0.00 0.14 0.00 72 1028.8
20190715150858 68 167 6.0 11.0 0.00 0.14 0.00 72 1028.9
20190715150348 68 160 5.0 11.0 0.00 0.14 0.00 70 1028.9
20190715150053 68 167 5.0 10.0 0.00 0.14 0.00 70 1014.4
20190715145833 69 124 5.0 10.0 0.00 0.14 0.00 72 1028.8
20190715145324 68 169 5.0 11.0 0.00 0.14 0.00 72 1028.9
20190715144814 68 133 5.0 11.0 0.00 0.14 0.00 71 1028.9
20190715144746 68 179 3.0 11.0 0.00 0.14 0.00 72 1014.4
20190715144304 68 159 5.0 11.0 0.00 0.14 0.00 72 1028.9
20190715143753 68 176 6.0 11.0 0.00 0.14 0.00 71 1028.9
20190715143236 68 154 6.0 10.0 0.00 0.14 0.00 70 1028.9
20190715143036 68 187 5.0 10.0 0.00 0.14 0.00 70 1014.4
20190715142726 68 132 5.0 10.0 0.00 0.14 0.00 71 1028.9
20190715142216 68 185 6.0 10.0 0.00 0.14 0.00 71 1029.0
20190715141706 68 190 5.0 11.0 0.00 0.14 0.00 71 1028.9
20190715141608 68 171 5.0 10.0 0.00 0.14 0.00 72 1014.5
20190715141152 68 165 5.0 11.0 0.00 0.14 0.00 72 1029.0
20190715140645 68 132 6.0 12.0 0.00 0.14 0.00 71 1029.0
20190715140136 68 169 5.0 12.0 0.00 0.14 0.00 72 1029.0
20190715140112 67 165 5.0 12.0 0.00 0.14 0.00 71 1014.5
20190715135634 68 148 5.0 11.0 0.00 0.14 0.00 73 1029.0
20190715135124 68 157 6.0 11.0 0.00 0.14 0.00 73 1029.1
20190715134614 68 170 6.0 11.0 0.00 0.14 0.00 71 1029.0
20190715134605 67 182 6.0 11.0 0.00 0.14 0.00 72 1014.5
20190715134107 67 188 6.0 11.0 0.00 0.14 0.00 72 1029.0
20190715133557 68 176 6.0 10.0 0.00 0.14 0.00 72 1029.1
20190715133127 67 163 5.0 10.0 0.00 0.14 0.00 72 1014.6
20190715133049 67 169 6.0 11.0 0.00 0.14 0.00 72 1029.1
20190715132545 68 174 6.0 11.0 0.00 0.14 0.00 71 1029.0
20190715132036 67 153 6.0 11.0 0.00 0.14 0.00 72 1029.0
20190715131649 67 161 6.0 11.0 0.00 0.14 0.00 72 1014.6
20190715131523 67 194 6.0 11.0 0.00 0.14 0.00 72 1029.1
20190715131016 68 163 6.0 11.0 0.00 0.14 0.00 73 1029.1
20190715130510 68 162 6.0 10.0 0.00 0.14 0.00 72 1029.1
20190715130146 67 148 6.0 10.0 0.00 0.14 0.00 71 1014.6
20190715125958 68 159 6.0 10.0 0.00 0.14 0.00 72 1029.2
20190715125457 68 142 6.0 10.0 0.00 0.14 0.00 73 1029.2
20190715124950 68 186 6.0 11.0 0.00 0.14 0.00 71 1029.2
20190715124536 67 138 5.0 10.0 0.00 0.14 0.00 72 1014.8
20190715124441 68 148 5.0 11.0 0.00 0.14 0.00 73 1029.3
20190715123934 67 131 6.0 12.0 0.00 0.14 0.00 73 1029.4
20190715123431 67 148 6.0 12.0 0.00 0.14 0.00 73 1029.4
20190715123005 67 136 5.0 12.0 0.00 0.14 0.00 74 1014.9
20190715122928 67 171 7.0 12.0 0.00 0.14 0.00 74 1029.4
20190715122424 67 143 6.0 12.0 0.00 0.14 0.00 72 1029.4
20190715121914 68 160 6.0 10.0 0.00 0.14 0.00 72 1029.4
20190715121649 67 167 6.0 10.0 0.00 0.14 0.00 73 1014.9
20190715121410 68 181 6.0 11.0 0.00 0.14 0.00 73 1029.4
20190715120905 68 182 5.0 11.0 0.00 0.14 0.00 72 1029.4
20190715120357 69 167 5.0 11.0 0.00 0.14 0.00 73 1029.5
20190715120036 68 193 3.0 11.0 0.00 0.14 0.00 74 1015.0
20190715115858 68 178 4.0 11.0 0.00 0.14 0.00 75 1029.5
20190715115353 68 180 5.0 11.0 0.00 0.14 0.00 75 1029.5
20190715114844 68 178 6.0 11.0 0.00 0.14 0.00 73 1029.5
20190715114610 67 170 6.0 11.0 0.00 0.14 0.00 73 1015.0
20190715114341 68 207 6.0 10.0 0.00 0.14 0.00 73 1029.6
20190715113836 68 151 6.0 10.0 0.00 0.14 0.00 73 1029.6
20190715113321 68 141 6.0 10.0 0.00 0.14 0.00 75 1029.6
20190715113145 68 186 6.0 10.0 0.00 0.14 0.00 73 1015.1
20190715112813 68 181 5.0 11.0 0.00 0.14 0.00 73 1029.6
20190715112305 68 169 5.0 11.0 0.00 0.14 0.00 75 1029.6
20190715111802 68 181 5.0 11.0 0.00 0.14 0.00 74 1029.6
20190715111611 67 179 6.0 11.0 0.00 0.14 0.00 73 1015.1
20190715111255 68 169 6.0 10.0 0.00 0.14 0.00 75 1029.7
20190715110745 68 132 6.0 11.0 0.00 0.14 0.00 74 1029.7
20190715110235 69 158 5.0 11.0 0.00 0.14 0.00 73 1029.7
20190715110010 68 189 4.0 10.0 0.00 0.14 0.00 73 1015.2
20190715105725 69 159 5.0 10.0 0.00 0.14 0.00 73 1029.7
20190715105213 69 193 5.0 10.0 0.00 0.14 0.00 74 1029.7
20190715104704 68 127 5.0 10.0 0.00 0.14 0.00 73 1029.7
20190715104554 68 167 5.0 10.0 0.00 0.14 0.00 73 1015.2
20190715104152 69 151 5.0 11.0 0.00 0.14 0.00 74 1029.7
20190715103644 69 145 5.0 11.0 0.00 0.14 0.00 73 1029.7
20190715103133 68 182 5.0 11.0 0.00 0.14 0.00 75 1029.7
20190715103007 68 155 4.0 11.0 0.00 0.14 0.00 75 1015.2
20190715102623 68 163 6.0 11.0 0.00 0.14 0.00 74 1029.7
20190715102113 69 162 6.0 11.0 0.00 0.14 0.00 73 1029.7
20190715101645 68 139 6.0 11.0 0.00 0.14 0.00 74 1015.1
20190715101558 69 145 5.0 11.0 0.00 0.14 0.00 74 1029.6
20190715101048 69 193 5.0 11.0 0.00 0.14 0.00 76 1029.7
20190715100538 68 174 6.0 11.0 0.00 0.14 0.00 77 1029.6
20190715100046 67 183 5.0 11.0 0.00 0.14 0.00 77 1015.1
20190715100037 68 196 6.0 11.0 0.00 0.14 0.00 77 1029.6
20190715095526 69 168 6.0 11.0 0.00 0.14 0.00 73 1029.6
20190715095017 69 113 5.0 10.0 0.00 0.14 0.00 75 1029.6
20190715094712 69 169 5.0 9.0 0.00 0.14 0.00 74 1015.0
20190715094510 69 171 5.0 9.0 0.00 0.14 0.00 74 1029.5
20190715094010 69 121 4.0 9.0 0.00 0.14 0.00 75 1029.6
20190715093459 69 157 4.0 9.0 0.00 0.14 0.00 76 1029.5
20190715093047 69 145 5.0 9.0 0.00 0.14 0.00 74 1015.0
20190715092948 69 160 4.0 9.0 0.00 0.14 0.00 74 1029.6
20190715092440 69 157 4.0 8.0 0.00 0.14 0.00 77 1029.6
20190715091929 68 181 4.0 7.0 0.00 0.14 0.00 77 1029.6
20190715091714 68 146 3.0 7.0 0.00 0.14 0.00 77 1015.1
20190715091419 68 179 3.0 7.0 0.00 0.14 0.00 77 1029.7
20190715090909 67 200 3.0 7.0 0.00 0.14 0.00 77 1029.7
20190715090359 67 188 4.0 7.0 0.00 0.14 0.00 80 1029.7
20190715090103 66 124 3.0 7.0 0.00 0.14 0.00 81 1015.1
20190715085849 66 127 4.0 7.0 0.00 0.14 0.00 81 1029.7
20190715085334 65 140 3.0 6.0 0.00 0.14 0.00 83 1029.7
20190715084825 65 121 3.0 6.0 0.00 0.14 0.00 84 1029.6
20190715084636 64 174 2.0 6.0 0.00 0.14 0.00 83 1015.2
20190715084314 64 126 2.0 6.0 0.00 0.14 0.00 84 1029.7
20190715083805 64 125 2.0 6.0 0.00 0.14 0.00 83 1029.8
20190715083254 65 124 3.0 7.0 0.00 0.14 0.00 83 1029.8
20190715083035 64 139 2.0 7.0 0.00 0.14 0.00 83 1015.3
20190715082745 65 137 3.0 8.0 0.00 0.14 0.00 84 1029.8
20190715082235 65 113 3.0 8.0 0.00 0.14 0.00 84 1029.9
20190715081725 65 176 3.0 8.0 0.00 0.14 0.00 85 1029.8
20190715081643 64 163 3.0 8.0 0.00 0.14 0.00 84 1015.3
20190715081215 65 170 2.0 8.0 0.00 0.14 0.00 84 1029.8
20190715080706 64 116 1.0 6.0 0.00 0.14 0.00 85 1029.8
20190715080155 64 164 0.0 0.0 0.00 0.14 0.00 87 1029.7
20190715080114 64 90 0.0 0.0 0.00 0.14 0.00 87 1015.2
20190715075644 64 93 0.0 0.0 0.00 0.14 0.00 87 1029.7
20190715075130 63 60 0.0 0.0 0.00 0.14 0.00 88 1029.7
20190715074708 62 25 0.0 0.0 0.00 0.14 0.00 88 1015.1
20190715074621 63 25 0.0 0.0 0.00 0.14 0.00 89 1029.6
20190715074110 62 53 0.0 0.0 0.00 0.14 0.00 88 1029.7
20190715073601 62 62 0.0 0.0 0.00 0.14 0.00 89 1029.6
20190715073051 62 55 0.0 0.0 0.00 0.14 0.00 90 1029.7
20190715072533 62 55 0.0 0.0 0.00 0.14 0.00 90 1029.7
20190715072024 61 19 0.0 0.0 0.00 0.14 0.00 91 1029.7
20190715071733 60 325 0.0 0.0 0.00 0.14 0.00 91 1015.3
20190715071512 61 19 0.0 0.0 0.00 0.14 0.00 91 1029.7
20190715071003 60 20 0.0 0.0 0.00 0.14 0.00 91 1029.7
20190715070453 60 3 0.0 0.0 0.00 0.14 0.00 92 1029.7
20190715070032 59 19 0.0 0.0 0.00 0.14 0.00 93 1015.2
20190715065942 60 19 0.0 0.0 0.00 0.14 0.00 93 1029.7
20190715065429 59 19 0.0 0.0 0.00 0.14 0.00 93 1029.7
20190715064915 59 345 0.0 0.0 0.00 0.14 0.00 93 1029.5
20190715064701 58 12 0.0 0.0 0.00 0.14 0.00 93 1015.1
20190715064405 58 72 0.0 0.0 0.00 0.14 0.00 94 1029.6
20190715063855 58 8 0.0 0.0 0.00 0.14 0.00 94 1029.5
20190715063344 58 3 0.0 0.0 0.00 0.14 0.00 94 1029.5
20190715063038 57 357 0.0 0.0 0.00 0.14 0.00 94 1015.0
20190715062835 57 10 0.0 0.0 0.00 0.14 0.00 94 1029.5
20190715062325 57 79 0.0 0.0 0.00 0.14 0.00 95 1029.5
20190715061814 57 112 0.0 0.0 0.00 0.14 0.00 94 1029.5
20190715061658 56 97 0.0 0.0 0.00 0.14 0.00 95 1015.0
20190715061305 56 89 0.0 0.0 0.00 0.14 0.00 95 1029.5
20190715060755 56 91 0.0 0.0 0.00 0.14 0.00 95 1029.5
20190715060245 56 82 0.0 0.0 0.00 0.14 0.00 95 1029.5
20190715060032 55 355 0.0 0.0 0.00 0.14 0.00 95 1015.0
20190715055727 56 355 0.0 0.0 0.00 0.14 0.00 95 1029.5
20190715055218 56 355 0.0 0.0 0.00 0.14 0.00 95 1029.5
20190715054703 55 355 0.0 0.0 0.00 0.14 0.00 95 1029.5
20190715054553 55 355 0.0 0.0 0.00 0.14 0.00 95 1015.0
20190715054153 55 352 0.0 0.0 0.00 0.14 0.00 95 1029.5
20190715053639 55 356 0.0 0.0 0.00 0.14 0.00 95 1029.4
20190715053200 54 356 0.0 0.0 0.00 0.14 0.00 95 1015.0
20190715053120 55 356 0.0 0.0 0.00 0.14 0.00 95 1029.5
20190715052612 55 357 0.0 0.0 0.00 0.14 0.00 95 1029.5
20190715052104 55 356 0.0 0.0 0.00 0.14 0.00 95 1029.5
20190715051555 55 356 0.0 0.0 0.00 0.14 0.00 95 1029.5
20190715051552 54 356 0.0 0.0 0.00 0.14 0.00 95 1015.0
20190715051044 54 357 0.0 0.0 0.00 0.14 0.00 95 1029.5
20190715050539 54 358 0.0 0.0 0.00 0.14 0.00 95 1029.6
20190715050032 54 358 0.0 0.0 0.00 0.14 0.00 95 1029.5
20190715050026 54 358 0.0 0.0 0.00 0.14 0.00 95 1015.0
20190715045523 54 358 0.0 0.0 0.00 0.14 0.00 95 1029.5
20190715045017 54 359 0.0 0.0 0.00 0.14 0.00 95 1029.5
20190715044618 53 359 0.0 0.0 0.00 0.14 0.00 95 1014.9
20190715044509 54 359 0.0 0.0 0.00 0.14 0.00 95 1029.4
20190715043958 54 359 0.0 0.0 0.00 0.14 0.00 95 1029.4
20190715043453 54 359 0.0 0.0 0.00 0.14 0.00 95 1029.4
20190715043054 53 359 0.0 0.0 0.00 0.14 0.00 95 1014.9
20190715042944 54 359 0.0 0.0 0.00 0.14 0.00 95 1029.4
20190715042435 53 359 0.0 0.0 0.00 0.14 0.00 95 1029.4
20190715041922 53 359 0.0 0.0 0.00 0.14 0.00 95 1029.5
20190715041756 53 359 0.0 0.0 0.00 0.14 0.00 95 1014.9
20190715041414 53 359 0.0 0.0 0.00 0.14 0.00 95 1029.4
20190715040907 53 359 0.0 0.0 0.00 0.14 0.00 95 1029.4
20190715040404 53 359 0.0 0.0 0.00 0.14 0.00 95 1029.3
20190715040137 53 359 0.0 0.0 0.00 0.14 0.00 94 1014.8
20190715035900 53 359 0.0 0.0 0.00 0.14 0.00 94 1029.3
20190715035352 53 359 0.0 0.0 0.00 0.14 0.00 94 1029.2
20190715034848 53 359 0.0 0.0 0.00 0.14 0.00 95 1029.2
20190715034535 53 359 0.0 0.0 0.00 0.14 0.00 95 1014.6
20190715034343 53 359 0.0 0.0 0.00 0.14 0.00 94 1029.1
20190715033839 53 359 0.0 0.0 0.00 0.14 0.00 94 1029.2
20190715033330 53 359 0.0 0.0 0.00 0.14 0.00 95 1029.1
20190715033151 52 359 0.0 0.0 0.00 0.14 0.00 94 1014.6
20190715032815 53 359 0.0 0.0 0.00 0.14 0.00 94 1029.0
20190715032308 53 359 0.0 0.0 0.00 0.14 0.00 94 1029.1
20190715031802 53 359 0.0 0.0 0.00 0.14 0.00 94 1029.1
20190715031627 52 359 0.0 0.0 0.00 0.14 0.00 94 1014.6
20190715031257 53 359 0.0 0.0 0.00 0.14 0.00 94 1029.1
20190715030751 53 359 0.0 6.0 0.00 0.14 0.00 94 1029.2
20190715030250 53 359 0.0 6.0 0.00 0.14 0.00 94 1029.2
20190715030109 53 359 0.0 5.0 0.00 0.14 0.00 95 1014.7
20190715025742 53 359 2.0 6.0 0.00 0.14 0.00 95 1029.2
20190715025237 53 356 3.0 6.0 0.00 0.14 0.00 94 1029.2
20190715024733 53 317 1.0 4.0 0.00 0.14 0.00 93 1029.2
20190715024512 52 330 0.0 2.0 0.00 0.14 0.00 93 1014.8
20190715024224 53 330 0.0 2.0 0.00 0.14 0.00 93 1029.3
20190715023719 53 330 0.0 0.0 0.00 0.14 0.00 93 1029.4
20190715023214 53 330 0.0 0.0 0.00 0.14 0.00 94 1029.4
20190715023149 53 330 0.0 0.0 0.00 0.14 0.00 94 1014.9
20190715022707 54 330 0.0 0.0 0.00 0.14 0.00 94 1029.4
20190715022156 54 330 0.0 0.0 0.00 0.14 0.00 94 1029.4